Location: *
(55.5817°S, 142.4781°W)
Time: 07:42:44
(UTC+00:00)

Cosmos 1190 Rocket - Pass Details

Date: 29 April 2025
Orbit: 752 x 776 km, 74.1° (Epoch: 24 May)

Event Time Altitude Azimuth Distance (km) Brightness Sun altitude
Exits shadow 14:46:58 - 207° (SSW) 2,775 6.6 -17.7°
Reaches altitude 10° 14:48:08 10° 205° (SSW) 2,320 6.2 -17.6°
Maximum altitude 14:53:24 69° 122° (ESE) 825 4.3 -16.8°
Drops below altitude 10° 14:58:36 10° 37° (NE) 2,299 7.0 -16.1°
Sets 15:00:58 0° 35° (NE) 3,219 7.8 -15.8°
